• In Netherlands
  • List of Countries
  • For 7 days
  • Water Temperature
  • Satellite Maps
  • Weather Map
  • Weather Widgets
  • user-avatar
    Login

    Hourly Weather Asadabad

    Today, 24 May, Wednesday

    Time Temperature Precipitation Wind Pressure Humidity
    00:00 +24°C° 0 mm 1 mps 657 mmHg 48%
    01:00 +24°C° 0 mm 1 mps 657 mmHg 48%
    02:00 +23°C° 0 mm 1 mps 657 mmHg 48%
    03:00 +23°C° 0 mm 2 mps 656 mmHg 47%
    04:00 +21°C° 0 mm 2 mps 656 mmHg 45%
    05:00 +21°C° 0 mm 3 mps 656 mmHg 42%
    06:00 +24°C° 0 mm 2 mps 657 mmHg 37%
    07:00 +26°C° 0 mm 2 mps 658 mmHg 32%
    08:00 +28°C° 0 mm 1 mps 658 mmHg 26%
    09:00 +29°C° 0 mm 1 mps 659 mmHg 24%
    10:00 +31°C° 0 mm 2 mps 659 mmHg 22%
    11:00 +32°C° 0 mm 2 mps 659 mmHg 21%
    12:00 +32°C° 0 mm 2 mps 659 mmHg 20%
    13:00 +34°C° 0 mm 2 mps 659 mmHg 20%
    14:00 +35°C° 0 mm 2 mps 659 mmHg 19%
    15:00 +35°C° 0 mm 2 mps 658 mmHg 19%
    16:00 +34°C° 0 mm 2 mps 658 mmHg 19%
    17:00 +34°C° 0 mm 3 mps 658 mmHg 19%
    18:00 +31°C° 0 mm 2 mps 657 mmHg 23%
    19:00 +29°C° 0 mm 1 mps 657 mmHg 26%
    20:00 +27°C° 0 mm 1 mps 656 mmHg 30%
    21:00 +26°C° 0 mm 1 mps 657 mmHg 30%
    22:00 +26°C° 0 mm 1 mps 657 mmHg 31%
    23:00 +25°C° 0 mm 1 mps 657 mmHg 31%

    Tomorrow, 25 May, Thursday

    Time Temperature Precipitation Wind Pressure Humidity
    00:00 +25°C° 0 mm 2 mps 656 mmHg 31%
    01:00 +24°C° 0 mm 2 mps 656 mmHg 31%
    02:00 +24°C° 0 mm 2 mps 656 mmHg 30%
    03:00 +24°C° 0 mm 2 mps 655 mmHg 30%
    04:00 +23°C° 0 mm 2 mps 655 mmHg 29%
    05:00 +23°C° 0 mm 2 mps 655 mmHg 28%
    06:00 +25°C° 0 mm 2 mps 656 mmHg 24%
    07:00 +27°C° 0 mm 2 mps 656 mmHg 20%
    08:00 +30°C° 0 mm 1 mps 657 mmHg 17%
    09:00 +31°C° 0 mm 1 mps 657 mmHg 15%
    10:00 +32°C° 0 mm 1 mps 657 mmHg 13%
    11:00 +34°C° 0 mm 2 mps 658 mmHg 12%
    12:00 +35°C° 0 mm 2 mps 657 mmHg 12%
    13:00 +36°C° 0 mm 2 mps 657 mmHg 11%
    14:00 +37°C° 0 mm 3 mps 657 mmHg 11%
    15:00 +36°C° 0 mm 2 mps 657 mmHg 11%
    16:00 +36°C° 0 mm 2 mps 657 mmHg 12%
    17:00 +36°C° 0 mm 2 mps 657 mmHg 12%
    18:00 +34°C° 0 mm 2 mps 656 mmHg 17%
    19:00 +30°C° 0 mm 1 mps 656 mmHg 21%
    20:00 +26°C° 0 mm 0 mps 656 mmHg 25%
    21:00 +27°C° 0 mm 1 mps 656 mmHg 25%
    22:00 +27°C° 0 mm 1 mps 656 mmHg 24%
    23:00 +27°C° 0 mm 2 mps 657 mmHg 24%

    Day after tomorrow, 26 May, Friday

    Time Temperature Precipitation Wind Pressure Humidity
    00:00 +26°C° 0 mm 2 mps 656 mmHg 24%
    01:00 +26°C° 0 mm 2 mps 656 mmHg 25%
    02:00 +25°C° 0 mm 3 mps 656 mmHg 26%
    03:00 +25°C° 0 mm 3 mps 656 mmHg 26%
    04:00 +24°C° 0 mm 3 mps 656 mmHg 26%
    05:00 +24°C° 0 mm 3 mps 656 mmHg 27%
    06:00 +26°C° 0 mm 3 mps 657 mmHg 23%
    07:00 +28°C° 0 mm 3 mps 657 mmHg 19%
    08:00 +30°C° 0 mm 3 mps 658 mmHg 16%
    09:00 +32°C° 0 mm 2 mps 658 mmHg 14%
    10:00 +34°C° 0 mm 2 mps 659 mmHg 12%
    11:00 +36°C° 0 mm 2 mps 659 mmHg 9%
    12:00 +36°C° 0 mm 2 mps 659 mmHg 9%
    13:00 +37°C° 0 mm 2 mps 659 mmHg 8%
    14:00 +38°C° 0 mm 2 mps 658 mmHg 7%
    15:00 +37°C° 0 mm 2 mps 658 mmHg 7%
    16:00 +37°C° 0 mm 3 mps 658 mmHg 7%
    17:00 +37°C° 0 mm 3 mps 658 mmHg 7%
    18:00 +35°C° 0 mm 3 mps 657 mmHg 9%
    19:00 +31°C° 0 mm 2 mps 657 mmHg 11%
    20:00 +29°C° 0 mm 2 mps 657 mmHg 13%
    21:00 +28°C° 0 mm 3 mps 657 mmHg 15%
    22:00 +27°C° 0 mm 3 mps 657 mmHg 16%
    23:00 +27°C° 0 mm 4 mps 657 mmHg 17%

    27 May, Saturday

    Time Temperature Precipitation Wind Pressure Humidity
    00:00 +26°C° 0 mm 4 mps 657 mmHg 18%
    01:00 +25°C° 0 mm 4 mps 656 mmHg 19%
    02:00 +23°C° 0 mm 4 mps 656 mmHg 20%
    03:00 +23°C° 0 mm 4 mps 656 mmHg 20%
    04:00 +22°C° 0 mm 4 mps 656 mmHg 20%
    05:00 +22°C° 0 mm 4 mps 655 mmHg 20%
    06:00 +25°C° 0 mm 4 mps 656 mmHg 18%
    07:00 +28°C° 0 mm 4 mps 657 mmHg 15%
    08:00 +30°C° 0 mm 3 mps 658 mmHg 12%
    09:00 +33°C° 0 mm 3 mps 658 mmHg 10%
    10:00 +34°C° 0 mm 3 mps 658 mmHg 8%
    11:00 +36°C° 0 mm 2 mps 658 mmHg 6%
    12:00 +37°C° 0 mm 2 mps 658 mmHg 6%
    13:00 +37°C° 0 mm 2 mps 657 mmHg 6%
    14:00 +38°C° 0 mm 2 mps 657 mmHg 6%
    15:00 +38°C° 0 mm 2 mps 657 mmHg 6%
    16:00 +38°C° 0 mm 3 mps 657 mmHg 6%
    17:00 +38°C° 0 mm 3 mps 656 mmHg 6%
    18:00 +35°C° 0 mm 2 mps 656 mmHg 8%
    19:00 +31°C° 0 mm 2 mps 656 mmHg 10%
    20:00 +29°C° 0 mm 2 mps 655 mmHg 12%
    21:00 +28°C° 0 mm 2 mps 656 mmHg 13%
    22:00 +28°C° 0 mm 3 mps 656 mmHg 14%
    23:00 +27°C° 0 mm 3 mps 656 mmHg 15%

    28 May, Sunday

    Time Temperature Precipitation Wind Pressure Humidity
    00:00 +26°C° 0 mm 3 mps 655 mmHg 16%
    01:00 +26°C° 0 mm 3 mps 655 mmHg 17%
    02:00 +25°C° 0 mm 3 mps 654 mmHg 18%
    03:00 +25°C° 0 mm 3 mps 654 mmHg 18%
    04:00 +24°C° 0 mm 3 mps 654 mmHg 18%
    05:00 +24°C° 0 mm 3 mps 654 mmHg 18%
    06:00 +26°C° 0 mm 3 mps 655 mmHg 15%
    07:00 +28°C° 0 mm 3 mps 656 mmHg 13%
    08:00 +31°C° 0 mm 2 mps 656 mmHg 10%
    09:00 +32°C° 0 mm 2 mps 657 mmHg 9%
    10:00 +35°C° 0 mm 2 mps 657 mmHg 8%
    11:00 +36°C° 0 mm 2 mps 657 mmHg 6%
    12:00 +36°C° 0 mm 2 mps 657 mmHg 6%
    13:00 +37°C° 0 mm 2 mps 657 mmHg 6%
    14:00 +38°C° 0 mm 3 mps 657 mmHg 6%
    15:00 +37°C° 0 mm 2 mps 656 mmHg 6%
    16:00 +37°C° 0 mm 2 mps 656 mmHg 7%
    17:00 +37°C° 0 mm 2 mps 656 mmHg 7%
    18:00 +34°C° 0 mm 2 mps 656 mmHg 9%
    19:00 +31°C° 0 mm 1 mps 655 mmHg 12%
    20:00 +28°C° 0 mm 1 mps 655 mmHg 14%
    21:00 +28°C° 0 mm 1 mps 655 mmHg 14%
    22:00 +27°C° 0 mm 2 mps 655 mmHg 14%
    23:00 +27°C° 0 mm 2 mps 655 mmHg 14%

    29 May, Monday

    Time Temperature Precipitation Wind Pressure Humidity
    00:00 +26°C° 0 mm 2 mps 655 mmHg 15%
    01:00 +26°C° 0 mm 3 mps 655 mmHg 16%
    02:00 +25°C° 0 mm 3 mps 654 mmHg 16%
    03:00 +25°C° 0 mm 3 mps 654 mmHg 17%
    04:00 +24°C° 0 mm 3 mps 654 mmHg 17%
    05:00 +24°C° 0 mm 3 mps 654 mmHg 18%
    06:00 +26°C° 0 mm 3 mps 655 mmHg 15%
    07:00 +29°C° 0 mm 3 mps 656 mmHg 13%
    08:00 +31°C° 0 mm 2 mps 657 mmHg 10%
    09:00 +32°C° 0 mm 2 mps 657 mmHg 9%
    10:00 +35°C° 0 mm 2 mps 657 mmHg 7%
    11:00 +36°C° 0 mm 2 mps 658 mmHg 6%
    12:00 +37°C° 0 mm 2 mps 657 mmHg 6%
    13:00 +38°C° 0 mm 2 mps 657 mmHg 5%
    14:00 +38°C° 0 mm 2 mps 657 mmHg 5%
    15:00 +38°C° 0 mm 3 mps 657 mmHg 5%
    16:00 +38°C° 0 mm 3 mps 656 mmHg 6%
    17:00 +38°C° 0 mm 3 mps 656 mmHg 6%
    18:00 +35°C° 0 mm 3 mps 656 mmHg 7%
    19:00 +32°C° 0 mm 2 mps 656 mmHg 9%
    20:00 +29°C° 0 mm 2 mps 655 mmHg 11%
    21:00 +28°C° 0 mm 2 mps 655 mmHg 12%
    22:00 +28°C° 0 mm 3 mps 656 mmHg 13%
    23:00 +27°C° 0 mm 3 mps 656 mmHg 14%
    Show more